Zadar, Croatia

4:22 AM CEST on May 29, 2017 (GMT +0200)
Zemunik

Weather History for LDZD - October, 2013

Change the Weather History Date:

Wednesday, October 23, 2013

  Actual Average Record
Temperature  
Mean Temperature 64 °F -  
Max Temperature 75 °F - - ()
Min Temperature 52 °F - - ()
Degree Days  
Heating Degree Days 2    
Growing Degree Days 14 (Base 50)    
Moisture  
Dew Point 57 °F    
Average Humidity 84    
Maximum Humidity 100    
Minimum Humidity 43    
Precipitation  
Precipitation 0.00 in - - ()
Sea Level Pressure  
Sea Level Pressure 30.14 in    
Wind  
Wind Speed 6 mph ()    
Max Wind Speed 14 mph    
Max Gust Speed -    
Visibility 5.4 miles    
Events      
T = Trace of Precipitation, MM = Missing Value Source: Averaged Metar Reports

Daily Weather History Graph

Daily Weather History Graph

Search for Another Location

Airport or City:

Trip Planner

Search our weather history database for the weather conditions in past years. The results will help you decide how hot, cold, wet, or windy it might be!

Date:

Astronomy

Oct. 23, 2013 Rise Set
Actual Time 7:23 AM CEST 6:01 PM CEST
Civil Twilight 6:53 AM CEST 6:31 PM CEST
Nautical Twilight 6:20 AM CEST 7:04 PM CEST
Astronomical Twilight 5:46 AM CEST 7:38 PM CEST
Moon 9:12 PM CEST (10/23) 11:32 AM CEST (10/23)
Length of Visible Light 11h 37m
Length of Day
10h 38m
Waning Gibbous, 81% of the Moon is Illuminated
Oct 23
Waning Gibbous
Oct 27
Last Quarter
Nov 3
New
Nov 10
First Quarter
Nov 17
Full

Hourly Weather History & Observations

Time (CEST) Temp. Dew Point Humidity Pressure Visibility Wind Dir Wind Speed Gust Speed Precip Events Conditions
12:00 AM 55.4 °F 55.4 °F 100% 30.15 in 2.5 mi SSE 4.6 mph - N/A   Mist
12:30 AM 57.2 °F 57.2 °F 100% 30.15 in 3.7 mi ESE 5.8 mph - N/A   Unknown
1:00 AM 57.2 °F 57.2 °F 100% 30.15 in 1.9 mi ESE 3.5 mph - N/A   Mist
1:30 AM 55.4 °F 55.4 °F 100% 30.15 in 1.9 mi ESE 5.8 mph - N/A   Mist
2:00 AM 55.4 °F 53.6 °F 94% 30.18 in 1.9 mi East 3.5 mph - N/A   Mist
2:30 AM 57.2 °F 57.2 °F 100% 30.18 in 1.9 mi East 5.8 mph - N/A   Mist
3:00 AM 55.4 °F 55.4 °F 100% 30.15 in 2.5 mi SE 4.6 mph - N/A   Mist
3:30 AM 55.4 °F 55.4 °F 100% 30.15 in 2.5 mi SE 4.6 mph - N/A   Mist
4:00 AM 53.6 °F 53.6 °F 100% 30.15 in 1.2 mi SE 5.8 mph - N/A   Mist
4:30 AM 55.4 °F 55.4 °F 100% 30.15 in 2.5 mi SE 5.8 mph - N/A   Mist
5:00 AM 55 °F 55 °F 99% 30.16 in 3 mi SE 4.5 mph - -   Mist
5:00 AM 55.4 °F 55.4 °F 100% 30.15 in 3.1 mi SE 4.6 mph - N/A   Mist
5:30 AM 55.4 °F 55.4 °F 100% 30.15 in 4.3 mi ESE 4.6 mph - N/A   Unknown
6:00 AM 53.6 °F 51.8 °F 94% 30.15 in 4.3 mi SE 4.6 mph - N/A   Unknown
6:30 AM 53.6 °F 51.8 °F 94% 30.15 in 4.3 mi ESE 5.8 mph - N/A   Unknown
7:00 AM 55.4 °F 55.4 °F 100% 30.15 in - SE 5.8 mph - N/A   Clear
7:30 AM 51.8 °F 51.8 °F 100% 30.15 in - ESE 5.8 mph - N/A   Clear
8:00 AM 53 °F 53 °F 100% 30.17 in 6 mi ESE 4.5 mph - -   Clear
8:00 AM 53.6 °F 53.6 °F 100% 30.15 in - ESE 4.6 mph - N/A   Clear
8:30 AM 57.2 °F 57.2 °F 100% 30.15 in - ESE 5.8 mph - N/A   Clear
9:00 AM 59.0 °F 57.2 °F 94% 30.15 in - SE 4.6 mph - N/A   Clear
9:30 AM 62.6 °F 59.0 °F 88% 30.15 in - SE 5.8 mph - N/A   Clear
10:00 AM 66.2 °F 59.0 °F 78% 30.15 in - SE 5.8 mph - N/A   Clear
10:30 AM 68.0 °F 59.0 °F 73% 30.15 in - SE 6.9 mph - N/A   Clear
11:00 AM 70 °F 58 °F 58% 30.17 in 16 mi SE 6.7 mph - -   Clear
11:00 AM 69.8 °F 59.0 °F 68% 30.18 in - SSE 6.9 mph - N/A   Clear
11:30 AM 71.6 °F 57.2 °F 60% 30.15 in - ESE 10.4 mph - N/A   Clear
12:00 PM 71.6 °F 57.2 °F 60% 30.15 in - SE 10.4 mph - N/A   Clear
12:30 PM 73.4 °F 57.2 °F 57% 30.15 in - SE 11.5 mph - N/A   Clear
1:00 PM 73.4 °F 57.2 °F 57% 30.15 in - SE 13.8 mph - N/A   Clear
1:30 PM 73.4 °F 57.2 °F 57% 30.12 in - SE 11.5 mph - N/A   Clear
2:00 PM 74 °F 56 °F 43% 30.14 in 19 mi SSE 13.4 mph - -   Clear
2:00 PM 73.4 °F 57.2 °F 57% 30.12 in - SSE 11.5 mph - N/A   Clear
2:30 PM 75.2 °F 55.4 °F 50% 30.12 in - SSE 12.7 mph - N/A   Clear
3:00 PM 73.4 °F 59.0 °F 61% 30.12 in - South 10.4 mph - N/A   Clear
3:30 PM 73.4 °F 57.2 °F 57% 30.09 in - SSE 12.7 mph - N/A   Clear
4:00 PM 73.4 °F 59.0 °F 61% 30.09 in - SSE 11.5 mph - N/A   Clear
4:30 PM 71.6 °F 59.0 °F 64% 30.09 in - SE 10.4 mph - N/A   Clear
5:00 PM 69 °F 60 °F 65% 30.12 in 19 mi SE 4.5 mph - -   Clear
5:00 PM 69.8 °F 59.0 °F 68% 30.12 in - SE 3.5 mph - N/A   Clear
5:30 PM 68.0 °F 60.8 °F 78% 30.12 in - East 5.8 mph - N/A   Clear
6:00 PM 66.2 °F 59.0 °F 78% 30.12 in - ESE 6.9 mph - N/A   Clear
6:30 PM 64.4 °F 59.0 °F 83% 30.12 in - ESE 5.8 mph - N/A   Clear
7:00 PM 62.6 °F 59.0 °F 88% 30.12 in - SE 4.6 mph - N/A   Clear
7:30 PM 60.8 °F 59.0 °F 94% 30.12 in - SE 4.6 mph - N/A   Clear
8:00 PM 61 °F 59 °F 92% 30.14 in 6 mi ESE 4.5 mph - -   Clear
8:00 PM 60.8 °F 59.0 °F 94% 30.12 in - ESE 4.6 mph - N/A   Clear
8:30 PM 60.8 °F 59.0 °F 94% 30.12 in - East 3.5 mph - N/A   Clear
9:00 PM 59.0 °F 57.2 °F 94% 30.12 in - East 4.6 mph - N/A   Clear
9:30 PM 57.2 °F 55.4 °F 94% 30.12 in - ESE 5.8 mph - N/A   Clear
10:00 PM 57.2 °F 57.2 °F 100% 30.12 in - SSE 1.2 mph - N/A   Clear
10:30 PM 57.2 °F 55.4 °F 94% 30.12 in - SE 3.5 mph - N/A   Clear
11:00 PM 56 °F 55 °F 97% 30.15 in 6 mi SE 4.5 mph - -  
11:00 PM 57.2 °F 55.4 °F 94% 30.15 in - SE 5.8 mph - N/A   Clear
11:30 PM 55.4 °F 55.4 °F 100% 30.12 in - SE 4.6 mph - N/A   Clear